Location: Charlottesville
(38.0290°N, 78.4770°W)
Time: 20:26:08
(UTC-05:00)

OTV 5 (USA 277) - Pass Details

Date: 11 October 2017
Orbit: 404 x 417 km, 43.0° (Epoch: 07 September)

Event Time Altitude Azimuth Distance (km) Brightness Sun altitude
Rises 20:28:03 0° 264° (W) 2,350 ? -21.8°
Reaches altitude 10° 20:30:13 10° 271° (W) 1,488 ? -22.2°
Enters shadow 20:33:03 43° 321° (NW) 594 ? -22.7°
